GW0996 Weather Reports


time (UTC)temp
C
wind
direction
speed
KPH
gust
KPH
rain 1hr
cm
rain 24hr
cm
rain mn
cm
humidity
%
barometer
mb
20260510174348 17 235 1.6 4.8 0.00 1.57 1.57 86 1010.5
20260510173849 17 146 0.0 0.0 0.00 1.57 1.57 87 1010.4
20260510172337 17 146 0.0 3.2 0.00 1.57 1.57 84 1010.3
20260510171825 17 164 0.0 0.0 0.00 1.57 1.57 83 1010.4
20260510171328 17 164 0.0 0.0 0.00 1.57 1.57 82 1010.5
20260510170827 17 164 0.0 0.0 0.00 1.57 1.57 82 1010.5
20260510170302 17 164 0.0 0.0 0.00 1.57 1.57 84 1010.6
20260510165802 17 164 0.0 0.0 0.00 1.57 1.57 85 1010.5
20260510165305 17 164 0.0 0.0 0.00 1.57 1.57 85 1010.6
20260510164802 17 164 0.0 0.0 0.00 1.57 1.57 85 1010.7
20260510164303 17 164 0.0 1.6 0.00 1.57 1.57 84 1010.7
20260510163803 17 165 0.0 1.6 0.00 1.57 1.57 84 1010.6
20260510163302 17 195 0.0 0.0 0.00 1.57 1.57 84 1010.7
20260510162803 17 195 0.0 0.0 0.00 1.57 1.57 84 1010.8
20260510162306 17 195 0.0 0.0 0.00 1.57 1.57 85 1010.6
20260510161804 17 195 0.0 0.0 0.00 1.57 1.57 84 1010.7
20260510161302 17 195 0.0 0.0 0.00 1.57 1.57 83 1010.9
20260510160805 17 195 0.0 0.0 0.00 1.57 1.57 83 1010.8
20260510155801 17 195 0.0 0.0 0.00 1.57 1.57 83 1011.0
20260510155300 17 195 0.0 0.0 0.00 1.57 1.57 86 1010.9
20260510154802 17 195 0.0 0.0 0.00 1.57 1.57 84 1011.1
20260510153803 17 194 0.0 0.0 0.00 1.57 1.57 85 1011.0
20260510153302 17 194 0.0 0.0 0.00 1.57 1.57 85 1011.2
20260510152802 17 194 0.0 0.0 0.00 1.57 1.57 85 1011.1
20260510151803 17 195 0.0 0.0 0.00 1.57 1.57 84 1011.2
20260510150804 17 195 0.0 0.0 0.00 1.57 1.57 87 1011.3
20260510150253 17 195 0.0 0.0 0.00 1.57 1.57 86 1011.2
20260510145238 17 195 0.0 0.0 0.00 1.57 1.57 87 1011.1
20260510144736 17 195 0.0 0.0 0.00 1.57 1.57 86 1011.3
20260510144225 17 195 0.0 0.0 0.00 1.57 1.57 87 1011.3
20260510143723 17 195 0.0 1.6 0.00 1.57 1.57 86 1011.4
20260510143224 17 195 0.0 1.6 0.00 1.57 1.57 86 1011.3
20260510142712 17 200 0.0 1.6 0.00 1.57 1.57 84 1011.3
20260510142214 17 200 0.0 0.0 0.00 1.57 1.57 84 1011.6
20260510141715 17 200 0.0 0.0 0.00 1.57 1.57 85 1011.5
20260510141201 17 199 0.0 1.6 0.00 1.57 1.57 86 1011.6
20260510140703 17 200 0.0 1.6 0.00 1.57 1.57 86 1011.4
20260510140201 17 204 0.0 1.6 0.00 1.57 1.57 83 1011.5
20260510135651 17 234 0.0 1.6 0.03 1.57 1.57 83 1011.5
20260510135149 17 223 0.0 1.6 0.03 1.57 1.57 84 1011.6
20260510134652 18 240 0.0 1.6 0.03 1.57 1.57 86 1011.3
20260510134151 17 244 0.0 1.6 0.03 1.57 1.57 86 1011.7
20260510133648 17 237 0.0 1.6 0.05 1.57 1.57 85 1011.6
20260510133148 17 253 0.0 1.6 0.05 1.57 1.57 88 1011.9
20260510132643 17 266 0.0 1.6 0.05 1.57 1.57 90 1011.8
20260510131643 17 270 0.0 0.0 0.05 1.57 1.57 91 1011.7
20260510131151 17 276 0.0 1.6 0.08 1.57 1.57 93 1011.8
20260510130646 17 279 0.0 3.2 0.08 1.57 1.57 94 1011.8
20260510130145 16 280 1.6 3.2 0.08 1.57 1.57 93 1011.7
20260510125646 16 144 0.0 1.6 0.05 1.55 1.55 92 1011.8
20260510125146 16 144 0.0 1.6 0.08 1.55 1.55 93 1012.0
20260510124644 16 147 0.0 0.0 0.08 1.55 1.55 92 1012.0
20260510124145 16 147 0.0 0.0 0.10 1.55 1.55 93 1012.1
20260510122643 15 148 0.0 0.0 0.23 1.52 1.52 93 1012.5
20260510122159 15 148 0.0 0.0 0.30 1.52 1.52 93 1012.6
20260510121644 15 145 0.0 0.0 0.33 1.52 1.52 94 1012.6
20260510121143 15 145 0.0 0.0 0.36 1.50 1.50 94 1012.7
20260510120646 15 144 0.0 1.6 0.43 1.50 1.50 94 1012.7
20260510120145 15 144 0.0 1.6 0.48 1.50 1.50 94 1012.9
20260510115643 15 144 0.0 0.0 0.53 1.50 1.50 94 1012.7
20260510115143 15 144 0.0 0.0 0.51 1.47 1.47 94 1012.9
20260510114644 15 144 0.0 0.0 0.51 1.47 1.47 94 1012.6
20260510114144 15 144 0.0 0.0 0.51 1.45 1.45 94 1012.8
20260510113644 15 144 0.0 0.0 0.53 1.42 1.42 93 1012.7
20260510112644 15 144 0.0 1.6 0.48 1.30 1.30 93 1013.1
20260510112145 15 144 0.0 0.0 0.41 1.22 1.24 93 1013.1
20260510111142 15 142 1.6 1.6 0.36 1.14 1.14 92 1013.4
20260510110645 15 194 0.0 1.6 0.28 1.07 1.09 93 1013.5
20260510110142 15 197 0.0 1.6 0.23 1.02 1.04 92 1013.2
20260510105132 15 214 0.0 1.6 0.18 0.97 0.97 93 1013.6
20260510104631 15 181 0.0 0.0 0.18 0.97 0.97 93 1013.3
20260510104130 15 172 0.0 0.0 0.18 0.94 0.94 93 1013.4
20260510103121 15 146 0.0 1.6 0.10 0.84 0.84 93 1013.1
20260510102621 15 124 0.0 1.6 0.10 0.81 0.81 92 1013.0
20260510102108 15 112 0.0 1.6 0.13 0.81 0.81 93 1013.1
20260510101609 15 112 0.0 1.6 0.18 0.79 0.79 93 1013.3
20260510101108 15 112 0.0 1.6 0.23 0.79 0.79 93 1013.4
20260510100612 15 312 0.0 0.0 0.28 0.79 0.79 93 1013.0
20260510100056 15 312 0.0 1.6 0.36 0.79 0.79 93 1013.0
20260510095601 15 313 0.0 1.6 0.41 0.79 0.79 93 1012.9
20260510094601 15 312 0.0 1.6 0.51 0.79 0.79 94 1013.0
20260510094059 15 312 0.0 0.0 0.53 0.76 0.79 94 1012.8
20260510093557 15 312 0.0 0.0 0.64 0.76 0.76 94 1012.7
20260510093055 15 313 0.0 0.0 0.61 0.74 0.74 94 1012.6
20260510092049 14 314 0.0 1.6 0.56 0.69 0.69 93 1012.5
20260510091549 14 306 0.0 4.8 0.51 0.61 0.61 93 1012.7
20260510091045 14 306 1.6 6.4 0.46 0.56 0.56 93 1012.7
20260510090545 14 318 0.0 6.4 0.41 0.51 0.51 92 1013.0
20260510090044 14 84 0.0 3.2 0.33 0.43 0.43 92 1013.4
20260510085544 15 133 1.6 3.2 0.28 0.38 0.38 91 1013.7
20260510085044 15 112 0.0 3.2 0.23 0.33 0.33 90 1013.9
20260510084544 15 141 0.0 1.6 0.18 0.28 0.28 89 1013.9
20260510084044 15 122 0.0 1.6 0.10 0.20 0.20 88 1014.0
20260510083543 15 50 0.0 0.0 0.03 0.13 0.13 88 1014.1
20260510083045 16 50 0.0 0.0 0.03 0.13 0.13 87 1014.1
20260510082545 16 50 0.0 0.0 0.03 0.13 0.13 87 1013.9
20260510081545 16 50 0.0 0.0 0.00 0.10 0.10 86 1013.9
20260510080544 16 50 0.0 0.0 0.00 0.10 0.10 86 1013.3
20260510080046 16 50 0.0 0.0 0.00 0.10 0.10 87 1013.4
20260510075544 16 50 0.0 1.6 0.00 0.10 0.10 87 1013.3
20260510075045 16 50 0.0 1.6 0.00 0.10 0.10 86 1013.0
20260510074544 16 42 0.0 0.0 0.00 0.10 0.10 86 1013.0
20260510073544 16 43 0.0 0.0 0.00 0.10 0.10 85 1012.9
20260510073045 16 43 0.0 0.0 0.00 0.10 0.10 84 1013.0
20260510072542 16 44 0.0 1.6 0.00 0.10 0.10 86 1013.0
20260510072043 16 41 0.0 1.6 0.00 0.10 0.10 86 1012.9
20260510071542 16 44 0.0 1.6 0.00 0.10 0.10 85 1013.0
20260510071043 16 44 0.0 1.6 0.00 0.10 0.10 87 1013.1
20260510070543 15 50 0.0 1.6 0.00 0.10 0.10 88 1013.1
20260510070045 15 44 0.0 1.6 0.00 0.10 0.10 90 1013.3
20260510065531 15 44 0.0 1.6 0.00 0.10 0.10 91 1013.3
20260510065031 15 45 0.0 1.6 0.00 0.10 0.10 91 1013.2
20260510064031 15 29 0.0 1.6 0.00 0.10 0.10 89 1013.0
20260510063531 15 32 0.0 1.6 0.00 0.10 0.10 89 1012.9
20260510062032 15 21 0.0 1.6 0.00 0.10 0.10 87 1012.7
20260510061531 15 21 0.0 1.6 0.00 0.10 0.10 88 1013.0
20260510061032 15 21 0.0 1.6 0.00 0.10 0.10 88 1012.8
20260510060532 15 22 0.0 1.6 0.00 0.10 0.10 88 1012.8
20260510060031 15 21 0.0 1.6 0.00 0.10 0.10 88 1013.0
20260510055518 14 11 0.0 3.2 0.00 0.10 0.10 90 1013.1
20260510055019 14 352 0.0 3.2 0.00 0.10 0.10 91 1012.9
20260510054519 14 325 0.0 1.6 0.00 0.10 0.10 92 1013.2
20260510054020 14 325 0.0 1.6 0.00 0.10 0.10 92 1013.1
20260510053510 14 325 0.0 0.0 0.00 0.10 0.10 92 1013.1
20260510053008 14 325 0.0 0.0 0.00 0.10 0.10 92 1013.2
20260510052508 14 326 0.0 0.0 0.00 0.10 0.10 92 1013.1
20260510052008 14 326 0.0 0.0 0.00 0.10 0.10 93 1013.0
20260510051509 14 326 0.0 0.0 0.00 0.10 0.10 92 1013.0
20260510051008 14 326 0.0 0.0 0.00 0.10 0.10 92 1013.0
20260510050508 14 326 0.0 0.0 0.03 0.10 0.10 92 1013.2
20260510045958 14 325 0.0 0.0 0.03 0.10 0.10 92 1013.2
20260510045457 14 325 0.0 0.0 0.05 0.10 0.10 92 1013.1
20260510044457 14 324 0.0 1.6 0.08 0.10 0.10 92 1012.8
20260510043958 14 324 0.0 1.6 0.10 0.10 0.10 92 1012.7
20260510043459 14 325 0.0 0.0 0.10 0.10 0.10 92 1012.7
20260510042958 14 325 0.0 0.0 0.10 0.10 0.10 92 1012.7
20260510042457 14 325 0.0 1.6 0.10 0.10 0.10 92 1012.9
20260510041958 14 326 0.0 1.6 0.10 0.10 0.10 91 1012.7
20260510041456 14 299 0.0 1.6 0.10 0.10 0.10 92 1012.9
20260510040958 14 304 0.0 1.6 0.10 0.10 0.10 92 1013.0
20260510040459 14 7 0.0 1.6 0.08 0.08 0.08 92 1012.9
20260510035958 14 340 0.0 1.6 0.08 0.08 0.08 92 1013.0
20260510035456 14 302 0.0 1.6 0.05 0.05 0.05 92 1013.2
20260510034442 14 303 0.0 0.0 0.03 0.03 0.03 92 1013.2
20260510033945 14 303 0.0 0.0 0.00 0.00 0.00 92 1013.1
20260510033443 14 303 0.0 0.0 0.00 0.00 0.00 92 1013.0
20260510032943 13 303 0.0 0.0 0.00 0.00 0.00 92 1013.1
20260510032443 13 303 0.0 0.0 0.00 0.00 0.00 92 1013.1
20260510031943 13 303 0.0 0.0 0.00 0.00 0.00 92 1013.0
20260510031443 13 303 0.0 0.0 0.00 0.00 0.00 91 1013.0
20260510030943 13 303 0.0 0.0 0.00 0.00 0.00 91 1013.1
20260510025943 13 303 0.0 0.0 0.00 0.00 0.00 91 1013.0
20260510025444 13 303 0.0 0.0 0.00 0.00 0.00 91 1013.2
20260510024943 13 303 0.0 0.0 0.00 0.00 0.00 91 1013.2
20260510024442 13 303 0.0 1.6 0.00 0.00 0.00 91 1013.2
20260510023943 13 303 0.0 3.2 0.00 0.00 0.00 91 1013.2
20260510023444 13 303 0.0 3.2 0.00 0.00 0.00 91 1013.4
20260510022943 13 303 0.0 0.0 0.00 0.00 0.00 91 1013.4
20260510022442 13 303 0.0 0.0 0.00 0.00 0.00 91 1013.6
20260510021943 13 303 0.0 0.0 0.00 0.00 0.00 91 1013.7
20260510021443 13 303 0.0 0.0 0.00 0.00 0.00 91 1013.7
20260510020431 13 303 0.0 0.0 0.00 0.00 0.00 90 1013.9
20260510015416 13 303 0.0 0.0 0.00 0.00 0.00 90 1013.9
20260510014917 13 303 0.0 0.0 0.00 0.00 0.00 90 1013.9
20260510014419 13 303 0.0 0.0 0.00 0.00 0.00 89 1014.0
20260510013406 13 303 0.0 0.0 0.00 0.00 0.00 89 1013.8
20260510012904 13 303 0.0 0.0 0.00 0.00 0.00 88 1013.9
20260510012404 14 303 0.0 0.0 0.00 0.00 0.00 88 1013.7
20260510011908 14 303 0.0 0.0 0.00 0.00 0.00 88 1013.9
20260510011404 14 303 0.0 0.0 0.00 0.00 0.00 88 1013.9
20260510010905 14 303 0.0 1.6 0.00 0.00 0.00 88 1013.8
20260510010406 14 303 0.0 1.6 0.00 0.00 0.00 88 1013.9
20260510005905 13 303 1.6 1.6 0.00 0.00 0.00 88 1013.8
20260510005404 13 303 0.0 0.0 0.00 0.00 0.00 89 1014.0
20260510004904 13 303 0.0 0.0 0.00 0.00 0.00 89 1013.7
20260510004404 13 303 0.0 0.0 0.00 0.00 0.00 89 1013.8
20260510003905 13 303 0.0 0.0 0.00 0.00 0.00 89 1014.0
20260510003406 13 303 0.0 0.0 0.00 0.00 0.00 89 1013.9
20260510002905 13 303 0.0 4.8 0.00 0.00 0.00 88 1013.8
20260510002354 13 303 0.0 4.8 0.00 0.00 0.00 88 1014.0
20260510001853 13 306 1.6 3.2 0.00 0.00 0.00 89 1013.8
20260510000853 13 359 0.0 1.6 0.00 0.00 0.00 89 1014.1
20260510000356 13 359 0.0 1.6 0.00 0.00 0.00 89 1014.0
20260509235852 13 358 0.0 1.6 0.00 0.00 0.00 89 1014.1
20260509235354 13 358 0.0 0.0 0.00 0.00 0.00 87 1014.1
20260509234853 13 359 0.0 0.0 0.00 0.00 0.00 87 1014.3
20260509234356 13 359 0.0 0.0 0.00 0.00 0.00 87 1014.2
20260509233854 14 359 0.0 0.0 0.00 0.00 0.00 87 1014.1
20260509232854 14 359 0.0 0.0 0.00 0.00 0.00 87 1014.5
20260509232356 14 358 0.0 0.0 0.00 0.00 0.00 87 1014.4
20260509231854 13 358 0.0 0.0 0.00 0.00 0.00 87 1014.6
20260509231356 13 359 0.0 0.0 0.00 0.00 0.00 87 1014.4
20260509230856 13 359 0.0 0.0 0.00 0.00 0.00 87 1014.2
20260509230356 13 359 0.0 0.0 0.00 0.00 0.00 87 1014.2
20260509225854 13 355 0.0 1.6 0.00 0.00 0.00 87 1014.3
20260509225355 13 355 0.0 1.6 0.00 0.00 0.00 87 1014.3
20260509224854 13 357 0.0 1.6 0.00 0.00 0.00 87 1014.1
20260509224357 13 357 0.0 1.6 0.00 0.00 0.00 87 1014.1
20260509223356 14 310 0.0 1.6 0.00 0.00 0.00 86 1014.0
20260509222853 14 311 0.0 1.6 0.00 0.00 0.00 86 1014.2
20260509222354 14 311 0.0 1.6 0.00 0.00 0.00 86 1014.1
20260509221853 14 311 0.0 1.6 0.00 0.00 0.00 86 1014.2
20260509221354 14 311 0.0 0.0 0.00 0.00 0.00 85 1014.1
20260509220853 14 312 0.0 0.0 0.00 0.00 0.00 85 1013.9
20260509220355 14 312 0.0 1.6 0.00 0.00 0.00 86 1013.8
20260509215854 14 312 0.0 1.6 0.00 0.00 0.00 86 1013.6
20260509215354 14 312 0.0 0.0 0.00 0.00 0.00 85 1013.5
20260509214853 15 312 0.0 0.0 0.00 0.00 0.00 85 1013.4
20260509214354 15 312 0.0 0.0 0.00 0.00 0.00 85 1013.5
20260509213853 15 312 0.0 0.0 0.00 0.00 0.00 83 1013.8
20260509212852 15 312 0.0 0.0 0.00 0.00 0.00 83 1013.5
20260509212356 15 312 0.0 0.0 0.00 0.00 0.00 82 1013.8
20260509211354 15 312 0.0 1.6 0.00 0.00 0.00 82 1013.9
20260509210853 15 312 0.0 1.6 0.00 0.00 0.00 82 1013.9
20260509210354 15 312 0.0 0.0 0.00 0.00 0.00 81 1013.6
20260509205854 16 312 0.0 1.6 0.00 0.00 0.00 81 1013.8
20260509205355 16 312 0.0 3.2 0.00 0.00 0.00 80 1013.8
20260509204855 16 312 1.6 4.8 0.00 0.00 0.00 80 1013.7
20260509204353 16 312 0.0 4.8 0.00 0.00 0.00 80 1013.9
20260509203852 16 329 0.0 3.2 0.00 0.00 0.00 80 1014.0
20260509203355 16 102 0.0 1.6 0.00 0.00 0.00 79 1014.0
20260509202853 16 126 0.0 0.0 0.00 0.00 0.00 79 1014.0
20260509202352 16 126 0.0 0.0 0.00 0.00 0.00 79 1014.0
20260509201853 16 126 0.0 1.6 0.00 0.00 0.00 79 1014.1
20260509201354 16 126 0.0 1.6 0.00 0.00 0.00 79 1014.0
20260509200851 16 132 0.0 1.6 0.00 0.00 0.00 80 1014.0
20260509200353 16 130 0.0 0.0 0.00 0.00 0.00 81 1014.0
20260509195853 16 130 0.0 0.0 0.00 0.00 0.00 80 1014.1
20260509195353 16 130 0.0 0.0 0.00 0.00 0.00 78 1014.1
20260509194851 16 130 0.0 0.0 0.00 0.00 0.00 78 1014.1
20260509194354 17 130 0.0 1.6 0.00 0.00 0.00 78 1013.8
20260509193852 17 130 0.0 1.6 0.00 0.00 0.00 78 1014.1
20260509193352 17 130 0.0 1.6 0.00 0.00 0.00 80 1014.1
20260509192855 17 130 0.0 0.0 0.00 0.00 0.00 80 1013.8
20260509192354 17 130 0.0 0.0 0.00 0.00 0.00 79 1013.7
20260509191852 17 130 0.0 0.0 0.00 0.00 0.00 76 1013.5
20260509191355 17 130 0.0 0.0 0.00 0.00 0.00 76 1013.5
20260509190352 18 130 0.0 0.0 0.00 0.00 0.00 75 1013.1
20260509185855 18 130 0.0 1.6 0.00 0.00 0.00 77 1013.0
20260509185356 18 130 0.0 1.6 0.00 0.00 0.00 77 1013.1
20260509184853 18 130 1.6 1.6 0.00 0.00 0.00 76 1012.7
20260509184356 18 130 0.0 1.6 0.00 0.00 0.00 76 1012.9
20260509183852 19 130 0.0 1.6 0.00 0.00 0.00 76 1012.6
20260509182854 19 130 0.0 1.6 0.00 0.00 0.00 75 1012.5
20260509181853 19 130 0.0 1.6 0.00 0.00 0.00 74 1012.6
20260509181355 20 129 0.0 1.6 0.00 0.00 0.00 75 1012.5
20260509180852 20 129 0.0 3.2 0.00 0.00 0.00 74 1012.2
20260509180353 20 129 0.0 3.2 0.00 0.00 0.00 73 1012.5
20260509175853 20 122 0.0 1.6 0.00 0.00 0.00 73 1012.6
20260509175353 20 126 0.0 1.6 0.00 0.00 0.00 71 1012.4